Merrill, WI

2:03 PM CDT on September 26, 2017 (GMT -0500)
Merrill Municipal

Weather History for KRRL - June, 2013

Change the Weather History Date:

Thursday, June 20, 2013

  Actual Average Record
Temperature  
Mean Temperature 66 °F -  
Max Temperature 82 °F 75 °F 97 °F (1933)
Min Temperature 50 °F 51 °F 36 °F (1992)
Growing Degree Days 16 (Base 50)    
Moisture  
Dew Point 57 °F    
Average Humidity 75    
Maximum Humidity 99    
Minimum Humidity 48    
Precipitation  
Precipitation 0.31 in - - ()
Sea Level Pressure  
Sea Level Pressure 30.09 in    
Wind  
Wind Speed 3 mph (South)    
Max Wind Speed 18 mph    
Max Gust Speed 25 mph    
Visibility 10 miles    
Events Rain , Thunderstorm    
Averages and records for this station are not official NWS values.
T = Trace of Precipitation, MM = Missing Value Source: NWS Daily Summary

Daily Weather History Graph

Daily Weather History Graph

Search for Another Location

Airport or City:

Trip Planner

Search our weather history database for the weather conditions in past years. The results will help you decide how hot, cold, wet, or windy it might be!

Date:

Astronomy

Jun. 20, 2013 Rise Set
Actual Time 5:11 AM CDT 8:49 PM CDT
Civil Twilight 4:33 AM CDT 9:27 PM CDT
Nautical Twilight 3:43 AM CDT 10:17 PM CDT
Astronomical Twilight 2:35 AM CDT 11:25 PM CDT
Moon 5:47 PM CDT (6/20) 2:44 AM CDT (6/20)
Length of Visible Light 16h 54m
Length of Day
15h 38m
Waxing Gibbous, 89% of the Moon is Illuminated
Jun 20
Waxing Gibbous
Jun 23
Full
Jun 29
Last Quarter
Jul 8
New
Jul 15
First Quarter

Hourly Weather History & Observations

Time (CDT) Temp. Heat Index Dew Point Humidity Pressure Visibility Wind Dir Wind Speed Gust Speed Precip Events Conditions
12:15 AM 53.2 °F - 52.0 °F 95% 30.09 in 10.0 mi Calm Calm - N/A   Clear
12:35 AM 53.4 °F - 52.5 °F 97% 30.09 in 10.0 mi Calm Calm - N/A   Clear
12:55 AM 52.9 °F - 52.3 °F 98% 30.09 in 10.0 mi Calm Calm - N/A   Clear
1:15 AM 52.5 °F - 51.8 °F 97% 30.09 in 10.0 mi Calm Calm - N/A   Clear
1:35 AM 52.7 °F - 52.3 °F 99% 30.09 in 10.0 mi Calm Calm - N/A   Clear
1:55 AM 52.2 °F - 51.4 °F 97% 30.08 in 10.0 mi Calm Calm - N/A   Clear
2:15 AM 51.4 °F - 50.9 °F 98% 30.08 in 10.0 mi Calm Calm - N/A   Clear
2:35 AM 51.3 °F - 50.7 °F 98% 30.09 in 10.0 mi Calm Calm - N/A   Clear
2:55 AM 55.0 °F - 53.4 °F 94% 30.09 in 10.0 mi SSE 4.6 mph - N/A   Clear
3:15 AM 56.1 °F - 53.8 °F 92% 30.09 in 10.0 mi Calm Calm - N/A   Clear
3:35 AM 53.1 °F - 51.3 °F 94% 30.09 in 10.0 mi Calm Calm - N/A   Scattered Clouds
3:55 AM 52.2 °F - 51.6 °F 98% 30.10 in 10.0 mi Calm Calm - N/A   Mostly Cloudy
4:15 AM 53.1 °F - 52.5 °F 98% 30.10 in 10.0 mi Calm Calm - N/A   Overcast
4:35 AM 52.2 °F - 50.9 °F 95% 30.10 in 10.0 mi Calm Calm - N/A   Mostly Cloudy
4:55 AM 51.4 °F - 50.4 °F 96% 30.10 in 10.0 mi Calm Calm - N/A   Mostly Cloudy
5:15 AM 51.1 °F - 50.5 °F 98% 30.10 in 10.0 mi Calm Calm - N/A   Scattered Clouds
5:35 AM 50.9 °F - 50.2 °F 97% 30.10 in 10.0 mi Calm Calm - N/A   Scattered Clouds
5:55 AM 52.2 °F - 51.3 °F 97% 30.10 in 10.0 mi Calm Calm - N/A   Scattered Clouds
6:15 AM 55.4 °F - 53.8 °F 94% 30.09 in 10.0 mi Calm Calm - N/A   Scattered Clouds
6:35 AM 58.3 °F - 55.4 °F 90% 30.10 in 10.0 mi Calm Calm - N/A   Clear
6:55 AM 61.5 °F - 57.7 °F 87% 30.09 in 10.0 mi Calm Calm - N/A   Clear
7:15 AM 64.2 °F - 55.4 °F 73% 30.09 in 10.0 mi Calm Calm - N/A   Clear
7:35 AM 66.2 °F - 55.8 °F 69% 30.10 in 10.0 mi South 3.5 mph - N/A   Clear
7:55 AM 67.1 °F - 55.6 °F 66% 30.12 in 10.0 mi SW 3.5 mph - N/A   Clear
8:15 AM 67.5 °F - 55.6 °F 66% 30.11 in 10.0 mi SSW 6.9 mph - N/A   Clear
8:35 AM 68.7 °F - 56.5 °F 65% 30.11 in 10.0 mi SSW 6.9 mph - N/A   Clear
8:55 AM 69.8 °F - 57.2 °F 64% 30.11 in 10.0 mi SW 9.2 mph - N/A   Clear
9:15 AM 71.1 °F - 57.9 °F 63% 30.11 in 10.0 mi SW 9.2 mph - N/A   Clear
9:35 AM 72.3 °F - 58.1 °F 61% 30.12 in 10.0 mi SW 6.9 mph - N/A   Clear
9:55 AM 72.7 °F - 58.5 °F 61% 30.12 in 10.0 mi SSW 3.5 mph - N/A   Scattered Clouds
10:15 AM 72.7 °F - 57.4 °F 59% 30.12 in 10.0 mi SW 6.9 mph - N/A   Mostly Cloudy
10:35 AM 72.7 °F - 58.3 °F 60% 30.12 in 10.0 mi SW 5.8 mph - N/A   Mostly Cloudy
10:55 AM 73.6 °F - 58.5 °F 59% 30.11 in 10.0 mi South 6.9 mph - N/A   Scattered Clouds
11:15 AM 74.7 °F - 59.4 °F 59% 30.11 in 10.0 mi SSE 6.9 mph - N/A   Clear
11:35 AM 75.9 °F - 60.1 °F 58% 30.11 in 10.0 mi SW 5.8 mph - N/A   Clear
11:55 AM 77.0 °F - 60.4 °F 56% 30.11 in 10.0 mi SW 6.9 mph - N/A   Clear
12:15 PM 77.9 °F - 60.6 °F 55% 30.10 in 10.0 mi SSW 8.1 mph - N/A   Clear
12:35 PM 78.8 °F - 60.8 °F 54% 30.10 in 10.0 mi SSW 8.1 mph - N/A   Clear
12:55 PM 79.7 °F - 59.7 °F 50% 30.10 in 10.0 mi SSW 9.2 mph - N/A   Clear
1:35 PM 80.1 °F 80.8 °F 59.2 °F 49% 30.09 in 10.0 mi SSW 8.1 mph - N/A   Scattered Clouds
1:55 PM 81.0 °F 81.6 °F 59.9 °F 49% 30.08 in 10.0 mi SW 12.7 mph - N/A   Clear
2:15 PM 81.5 °F 82.1 °F 60.4 °F 49% 30.08 in 10.0 mi WSW 8.1 mph 18.4 mph N/A   Scattered Clouds
2:55 PM 79.5 °F - 58.8 °F 49% 30.07 in 10.0 mi SW 11.5 mph 19.6 mph N/A   Scattered Clouds
3:15 PM 79.0 °F - 59.2 °F 51% 30.07 in 10.0 mi SSW 12.7 mph 17.3 mph N/A   Light Drizzle
3:55 PM 78.1 °F - 63.0 °F 60% 30.07 in 10.0 mi West 6.9 mph - N/A   Mostly Cloudy
4:35 PM 79.2 °F - 61.9 °F 55% 30.06 in 10.0 mi SW 10.4 mph - N/A   Mostly Cloudy
5:15 PM 78.8 °F - 59.4 °F 51% 30.05 in 10.0 mi South 3.5 mph - N/A   Scattered Clouds
6:35 PM 79.3 °F - 58.3 °F 48% 30.04 in 10.0 mi South 6.9 mph - N/A   Clear
6:55 PM 79.0 °F - 57.9 °F 48% 30.04 in 10.0 mi South 4.6 mph - N/A   Clear
7:35 PM 76.5 °F - 61.0 °F 59% 30.05 in 10.0 mi Calm Calm - N/A   Clear
7:55 PM 75.4 °F - 61.5 °F 62% 30.05 in 10.0 mi ESE 3.5 mph - N/A   Clear
8:15 PM 74.1 °F - 61.3 °F 64% 30.05 in 10.0 mi Calm Calm - N/A   Scattered Clouds
8:35 PM 72.1 °F - 62.2 °F 71% 30.05 in 10.0 mi ESE 3.5 mph - N/A   Scattered Clouds
8:55 PM 72.1 °F - 61.5 °F 69% 30.05 in 10.0 mi ESE 4.6 mph - N/A   Clear
9:15 PM 72.7 °F - 61.3 °F 67% 30.05 in 10.0 mi ESE 4.6 mph - N/A   Mostly Cloudy
9:35 PM 72.9 °F - 61.0 °F 66% 30.05 in 10.0 mi SE 5.8 mph - N/A   Overcast
9:55 PM 73.2 °F - 60.3 °F 64% 30.06 in 10.0 mi East 3.5 mph - N/A   Overcast
10:15 PM 68.9 °F - 63.9 °F 84% 30.07 in 10.0 mi NE 11.5 mph 16.1 mph N/A   Overcast
10:35 PM 67.3 °F - 64.4 °F 90% 30.10 in 10.0 mi NNE 18.4 mph 25.3 mph N/A Rain Rain
10:55 PM 65.8 °F - 64.6 °F 96% 30.12 in 4.0 mi NNE 16.1 mph 23.0 mph 0.07 in Rain , Thunderstorm Thunderstorms and Rain
11:15 PM 65.3 °F - 64.4 °F 97% 30.12 in 5.0 mi ENE 15.0 mph 19.6 mph 0.08 in Rain Rain
11:35 PM 65.3 °F - 64.4 °F 97% 30.14 in 5.0 mi NNE 15.0 mph - 0.14 in Rain , Thunderstorm Heavy Thunderstorms and Rain
11:55 PM 64.6 °F - 63.9 °F 98% 30.14 in 5.0 mi NE 13.8 mph 21.9 mph 0.24 in Rain , Thunderstorm Thunderstorms and Rain